STARLINK-4679 (53782 NORAD) Tracking and Keplerian Element Data

This shows tracking and keplerian element data for the satellite.

Feedback or suggestion? Click here.




ElementValue
Catalog53782
NameSTARLINK-4679
Epoch Orbit1106
Epoch Day325.33334491
Epoch Year2022
RAAN280.7577
Inclination53.2174
Eccentricity0.0002044
Argument of Perigee39.4341
Mean Anonmoly124.2826
Mean Motion15.09166907
Decay Rate-0.0043418
L11 53782U 22111K 22325.33334491 -.00434180 00000+0 -28699-1 0 9992
L22 53782 53.2174 280.7577 0002044 39.4341 124.2826 15.09166907 11066



Live tracking and technical data element details for STARLINK-4679 (NORAD 53782). STARLINK-4679 can be tracked NOW for your location showing map with azimuth and elevation plus other details from your city location.







IsCatalogInMostPopularTable: catalog: 53782, numindb: -1

Insert: records affected: 1


GetName: 53782 STARLINK-4679

Hit Count: inserted at: Thu, 08 Dec 2022 09:44:15 GMT